Change the Weather History Date:

Wednesday, March 21, 2012

  Actual Average (KDHN) Record (KDHN)
Temperature  
Mean Temperature 70 °F 60 °F  
Max Temperature 80 °F 72 °F 87 °F (1948)
Min Temperature 60 °F 48 °F 31 °F (1956)
Degree Days  
Heating Degree Days 0 6  
Month to date heating degree days 160  
Since 1 July heating degree days 1719  
Cooling Degree Days 5 1  
Month to date cooling degree days 20  
Year to date cooling degree days 30  
Growing Degree Days 20 (Base 50)    
Moisture  
Dew Point 47 °F    
Average Humidity 48    
Maximum Humidity 100    
Minimum Humidity 20    
Precipitation  
Precipitation 0.00 in 0.20 in 1.92 in (1937)
Month to date precipitation 3.57  
Year to date precipitation 12.97  
Sea Level Pressure  
Sea Level Pressure 30.12 in    
Wind  
Wind Speed 3 mph (SE)    
Max Wind Speed 12 mph    
Max Gust Speed 17 mph    
Visibility 10 miles    
Events      
T = Trace of Precipitation, MM = Missing Value Source: NWS Daily Summary

Daily Weather History Graph

Daily Weather History Graph

Search for Another Location

Airport or City:

Trip Planner

Search our weather history database for the weather conditions in past years. The results will help you decide how hot, cold, wet, or windy it might be!

Date:

Astronomy

Mar. 21, 2012 Rise Set
Actual Time 7:41 AM EDT 7:52 PM EDT
Civil Twilight 7:17 AM EDT 8:16 PM EDT
Nautical Twilight 6:48 AM EDT 8:44 PM EDT
Astronomical Twilight 6:20 AM EDT 9:13 PM EDT
Moon 6:51 AM EDT (3/21) 7:17 PM EDT (3/21)
Length of Visible Light 12h 59m
Length of Day
12h 10m
Waning Crescent, 1% of the Moon is Illuminated
Mar 21
Waning Crescent
Mar 22
New
Mar 30
First Quarter
Apr 6
Full
Apr 13
Last Quarter

Hourly Weather History & Observations

Time (EDT) Temp. Dew Point Humidity Pressure Visibility Wind Dir Wind Speed Gust Speed Precip Events Conditions
12:15 AM 62.6 °F 51.8 °F 68% 30.10 in 5.0 mi Calm Calm - N/A   Haze
12:35 AM 62.6 °F 50.0 °F 63% 30.10 in 7.0 mi Calm Calm - N/A   Overcast
12:55 AM 62.6 °F 51.8 °F 68% 30.10 in 7.0 mi Calm Calm - N/A   Overcast
1:35 AM 62.6 °F 50.0 °F 63% 30.10 in 7.0 mi Calm Calm - N/A   Mostly Cloudy
1:55 AM 64.4 °F 48.2 °F 56% 30.11 in 10.0 mi East 4.6 mph - N/A   Overcast
2:15 AM 66.2 °F 48.2 °F 52% 30.11 in 10.0 mi ESE 3.5 mph - N/A   Mostly Cloudy
2:35 AM 64.4 °F 48.2 °F 56% 30.11 in 10.0 mi East 4.6 mph - N/A   Scattered Clouds
2:55 AM 64.4 °F 48.2 °F 56% 30.10 in 10.0 mi East 4.6 mph - N/A   Clear
3:15 AM 64.4 °F 48.2 °F 56% 30.10 in 10.0 mi East 4.6 mph - N/A   Clear
3:35 AM 64.4 °F 50.0 °F 59% 30.10 in 10.0 mi East 4.6 mph - N/A   Scattered Clouds
3:55 AM 64.4 °F 50.0 °F 59% 30.10 in 10.0 mi East 3.5 mph - N/A   Clear
4:15 AM 64.4 °F 50.0 °F 59% 30.10 in 10.0 mi East 3.5 mph - N/A   Clear
4:35 AM 62.6 °F 50.0 °F 63% 30.10 in 10.0 mi Calm Calm - N/A   Clear
4:55 AM 62.6 °F 50.0 °F 63% 30.10 in 10.0 mi Calm Calm - N/A   Clear
5:15 AM 62.6 °F 50.0 °F 63% 30.10 in 10.0 mi Calm Calm - N/A   Clear
5:35 AM 60.8 °F 55.4 °F 82% 30.10 in 10.0 mi Calm Calm - N/A   Clear
5:55 AM 60.8 °F 60.8 °F 100% 30.11 in 10.0 mi Calm Calm - N/A   Clear
6:15 AM - - N/A% 30.12 in 10.0 mi Calm Calm - N/A   Clear
6:35 AM - - N/A% 30.12 in 10.0 mi Calm Calm - N/A   Clear
6:55 AM - - N/A% 30.13 in 10.0 mi ENE 3.5 mph - N/A   Clear
7:15 AM - - N/A% 30.14 in 10.0 mi Calm Calm - N/A   Clear
7:35 AM - - N/A% 30.14 in 10.0 mi Calm Calm - N/A   Clear
7:55 AM - - N/A% 30.14 in 7.0 mi Calm Calm - N/A   Clear
8:15 AM - - N/A% 30.15 in 7.0 mi Calm Calm - N/A   Clear
8:35 AM - - N/A% 30.15 in 10.0 mi East 4.6 mph - N/A   Clear
8:55 AM - - N/A% 30.15 in 10.0 mi East 4.6 mph - N/A   Clear
9:15 AM 64.4 °F 64.4 °F 100% 30.15 in 10.0 mi ESE 4.6 mph - N/A   Clear
9:35 AM 66.2 °F 64.4 °F 94% 30.16 in 10.0 mi ESE 4.6 mph - N/A   Clear
9:55 AM 68.0 °F 51.8 °F 56% 30.16 in 10.0 mi SE 5.8 mph - N/A   Clear
10:15 AM 69.8 °F 51.8 °F 53% 30.16 in 10.0 mi SSE 5.8 mph - N/A   Clear
10:35 AM 69.8 °F 51.8 °F 53% 30.15 in 10.0 mi SE 6.9 mph 16.1 mph N/A   Clear
10:55 AM 71.6 °F 50.0 °F 46% 30.14 in 10.0 mi East 9.2 mph - N/A   Scattered Clouds
11:15 AM 73.4 °F 50.0 °F 44% 30.15 in 10.0 mi SSE 10.4 mph - N/A   Scattered Clouds
11:35 AM 73.4 °F 46.4 °F 38% 30.15 in 10.0 mi SSE 11.5 mph 17.3 mph N/A   Clear
11:55 AM 75.2 °F 46.4 °F 36% 30.15 in 10.0 mi South 9.2 mph - N/A   Scattered Clouds
12:15 PM 77.0 °F 44.6 °F 32% 30.15 in 10.0 mi SSE 8.1 mph - N/A   Scattered Clouds
12:35 PM 77.0 °F 44.6 °F 32% 30.14 in 10.0 mi ESE 10.4 mph 17.3 mph N/A   Scattered Clouds
12:55 PM 78.8 °F 44.6 °F 30% 30.14 in 10.0 mi South 9.2 mph 16.1 mph N/A   Scattered Clouds
1:15 PM 77.0 °F 44.6 °F 32% 30.14 in 10.0 mi ESE 9.2 mph - N/A   Scattered Clouds
1:35 PM 78.8 °F 42.8 °F 28% 30.13 in 10.0 mi South 10.4 mph 16.1 mph N/A   Mostly Cloudy
1:55 PM 78.8 °F 39.2 °F 24% 30.12 in 10.0 mi SE 10.4 mph 16.1 mph N/A   Scattered Clouds
2:15 PM 78.8 °F 41.0 °F 26% 30.10 in 10.0 mi SE 6.9 mph - N/A   Scattered Clouds
2:35 PM 80.6 °F 39.2 °F 23% 30.10 in 10.0 mi SSE 6.9 mph - N/A   Scattered Clouds
2:55 PM 78.8 °F 37.4 °F 23% 30.09 in 10.0 mi SSE 6.9 mph - N/A   Scattered Clouds
3:15 PM 80.6 °F 37.4 °F 21% 30.09 in 10.0 mi SE 9.2 mph 16.1 mph N/A   Scattered Clouds
3:35 PM 80.6 °F 35.6 °F 20% 30.08 in 10.0 mi SE 4.6 mph - N/A   Scattered Clouds
3:55 PM 80.6 °F 35.6 °F 20% 30.07 in 10.0 mi SE 8.1 mph - N/A   Mostly Cloudy
4:15 PM 80.6 °F 37.4 °F 21% 30.07 in 10.0 mi SSE 9.2 mph 17.3 mph N/A   Mostly Cloudy
4:35 PM 80.6 °F 37.4 °F 21% 30.07 in 10.0 mi SE 5.8 mph - N/A   Overcast
4:55 PM 80.6 °F 35.6 °F 20% 30.07 in 10.0 mi SE 10.4 mph 16.1 mph N/A   Mostly Cloudy
5:15 PM 80.6 °F 35.6 °F 20% 30.07 in 10.0 mi SE 3.5 mph - N/A   Overcast
5:35 PM 80.6 °F 37.4 °F 21% 30.06 in 10.0 mi ESE 6.9 mph - N/A   Scattered Clouds
5:55 PM 80.6 °F 37.4 °F 21% 30.07 in 10.0 mi South 8.1 mph - N/A   Mostly Cloudy
6:15 PM 80.6 °F 35.6 °F 20% 30.08 in 10.0 mi South 5.8 mph - N/A   Scattered Clouds
6:35 PM 78.8 °F 32.0 °F 18% 30.08 in 10.0 mi South 3.5 mph - N/A   Clear
6:55 PM 77.0 °F 28.4 °F 17% 30.08 in 10.0 mi South 5.8 mph - N/A   Clear
7:15 PM 77.0 °F 30.2 °F 18% 30.08 in 10.0 mi South 3.5 mph - N/A   Clear
7:35 PM 75.2 °F 32.0 °F 21% 30.08 in 10.0 mi SSW 4.6 mph - N/A   Clear
7:55 PM 73.4 °F 32.0 °F 22% 30.08 in 10.0 mi Calm Calm - N/A   Clear
8:15 PM 71.6 °F 33.8 °F 25% 30.08 in 10.0 mi Calm Calm - N/A   Clear
8:35 PM 69.8 °F 37.4 °F 31% 30.08 in 10.0 mi Calm Calm - N/A   Clear
8:55 PM 68.0 °F 41.0 °F 37% 30.08 in 10.0 mi Calm Calm - N/A   Clear
9:15 PM 62.6 °F 44.6 °F 52% 30.09 in 10.0 mi Calm Calm - N/A   Clear
9:35 PM 62.6 °F 44.6 °F 52% 30.10 in 10.0 mi Calm Calm - N/A   Clear
9:55 PM 62.6 °F 44.6 °F 52% 30.10 in 10.0 mi Calm Calm - N/A   Clear
10:15 PM 60.8 °F 44.6 °F 55% 30.12 in 10.0 mi Calm Calm - N/A   Clear
10:35 PM 59.0 °F 44.6 °F 59% 30.13 in 10.0 mi Calm Calm - N/A   Clear
10:55 PM 60.8 °F 44.6 °F 55% 30.14 in 10.0 mi Calm Calm - N/A   Clear
11:15 PM 60.8 °F 44.6 °F 55% 30.14 in 10.0 mi Calm Calm - N/A   Clear
11:35 PM 59.0 °F 44.6 °F 59% 30.16 in 10.0 mi Calm Calm - N/A   Clear
11:55 PM 59.0 °F 44.6 °F 59% 30.15 in 10.0 mi Calm Calm - N/A   Clear